Regional Weather Roundup
Issued by NWS Cleveland, OH

Home | Current Version | Previous Version | Graphics & Text | Print | Product List | Glossary On
Versions: 1 2 3 4 5 6 7 8 9 10 11 12 13 14 15 16 17 18 19 20 21 22 23 24 25 26 27 28 29 30 31 32 33 34 35 36 37 38 39 40 41 42 43 44 45 46 47 48 49 50
000
ASUS41 KCLE 191610
RWRCLE
OHIO REGIONAL WEATHER ROUNDUP
NATIONAL WEATHER SERVICE CLEVELAND, OH
1200 PM EDT THU APR 19 2018

NOTE: "FAIR" INDICATES FEW OR NO CLOUDS BELOW 12,000 FEET WITH NO
SIGNIFICANT WEATHER AND/OR OBSTRUCTIONS TO VISIBILITY.

OHZ001>008-015>018-024>027-034-035-043-044-191700-
   NORTHWEST OHIO

CITY           SKY/WX    TMP DP  RH WIND       PRES   REMARKS
DEFIANCE       FAIR      44  32  62 N16G22    30.18R
FINDLAY        FAIR      45  29  53 NW15G23   30.15R
TOLEDO EXPRESS FAIR      45  30  55 NW16G24   30.15R
TOLEDO EXEC    FAIR      45  27  49 NW16G24   30.15R
LIMA           PTSUNNY   41  32  70 N13G22    30.17R
$$

OHZ009>014-019>023-028>033-038-089-191700-
   NORTHEAST OHIO

CITY           SKY/WX    TMP DP  RH WIND       PRES   REMARKS
CLE-HOPKINS    CLOUDY    39  30  70 N15G24    30.11R
CLE-LAKEFRONT  CLOUDY    38  29  70 NW21      30.08R
CUY CO. ARPT   CLOUDY    37  28  70 NE17      30.07R
LORAIN-ELYRIA  CLOUDY    39  26  59 N15G25    30.11R
ASHTABULA      CLOUDY    36  28  73 N9G25     30.02R
AKRON-CANTON   FLURRIES  36  30  79 NW10      30.04R
WOOSTER        CLOUDY    37  29  72 N21G29    30.07R
MANSFIELD      CLOUDY    38  29  70 NW16      30.09R
YOUNGSTOWN     FLURRIES  35  27  72 NW17G25   30.00R WCI  25
$$

OHZ042-051>053-060>062-070>072-077>081-191700-
  SOUTHWEST OHIO

CITY           SKY/WX    TMP DP  RH WIND       PRES   REMARKS
CINC-COVINGTON CLOUDY    41  32  70 NW13      30.21R
CINC-LUNKEN    CLOUDY    42  33  70 N9        30.23R
HAMILTON       CLOUDY    43  31  62 N13       30.23R
DAYTON         PTSUNNY   41  31  67 NW10      30.19R
WRIGHT-PAT AFB NOT AVBL
DAYTON GENERAL CLOUDY    40  28  62 N8        30.19R
WILMINGTON     CLOUDY    38  31  76 NW12      30.18R
$$

OHZ036-037-039>041-045>050-054>059-063>069-073>076-082>088-191700-
  CENTRAL AND SOUTHEAST OHIO

CITY           SKY/WX    TMP DP  RH WIND       PRES   REMARKS
COLUMBUS       CLOUDY    40  29  64 NW15      30.14R
OSU AIRPORT    CLOUDY    40  29  64 NW15G21   30.14R
BOLTON FIELD   CLOUDY    39  28  65 N15G22    30.15R
RICKENBACK AFB CLOUDY    39  29  68 N10       30.15R
NEWARK         CLOUDY    39  28  64 N12G21    30.12R
MARION         CLOUDY    39  29  67 NW15G22   30.14R
LANCASTER      CLOUDY    38  30  73 N10G21    30.15R
ZANESVILLE     CLOUDY    38  28  67 NW15G24   30.11R
NEW PHILLY     CLOUDY    37  29  72 NW12      30.08R
$$




USA.gov is the U.S. government's official web portal to all federal, state and local government web resources and services.